This demonstration page uses our WeatherBlox Daily Observations layout. Learn more.

40.92945, -100.16068

Hourly Observations for July 13, 2015

Temp ( °F °C ) Dew Point ( °F °C ) Humidity (%) Winds ( mph kmh ) Pressure ( in mb ) Visibility ( mi km ) Precip ( " mm )
12:15 am 00:15 Clear 74 23.6 69 20.6 83 83 Calm 29.77 1008 10 16.0934 N/A
12:35 am 00:35 Clear 74 23.4 69 20.6 84 84 SSE 3 6 29.77 1008 10 16.0934 N/A
12:55 am 00:55 Clear 73 23 69 20.3 85 85 SSE 3 6 29.77 1008 10 16.0934 N/A
1:15 am 01:15 Clear 72 22 66 19.1 84 84 Calm 29.8 1009 10 16.0934 N/A
1:35 am 01:35 Clear 72 22.2 68 19.8 86 86 Calm 29.74 1007 10 16.0934 N/A
1:55 am 01:55 Clear 69 20.6 67 19.2 92 92 Calm 29.77 1008 10 16.0934 N/A
2:15 am 02:15 Clear 69 20.3 66 19 92 92 N 5 7 29.77 1008 10 16.0934 N/A
2:35 am 02:35 Clear 69 20.3 67 19.2 93 93 N 5 7 29.77 1008 7 11.26538 N/A
2:55 am 02:55 Clear 69 20.7 67 19.7 94 94 N 3 6 29.77 1008 7 11.26538 N/A
3:15 am 03:15 Clear 70 21 67 19.6 92 92 Calm 29.74 1007 10 16.0934 N/A
3:35 am 03:35 Clear 69 20.5 66 19.1 92 92 N 3 6 29.74 1007 7 11.26538 N/A
3:55 am 03:55 Clear 68 20.2 66 19 93 93 NNW 5 7 29.74 1007 7 11.26538 N/A
4:15 am 04:15 Clear 68 20.2 66 19.1 93 93 NNW 6 9 29.77 1008 7 11.26538 N/A
4:35 am 04:35 Clear 69 20.6 67 19.5 93 93 NW 7 11 29.77 1008 10 16.0934 N/A
4:55 am 04:55 Clear 70 21 67 19.5 91 91 NW 8 13 29.77 1008 10 16.0934 N/A
5:15 am 05:15 Clear 70 21.1 67 19.3 90 90 WNW 6 9 29.77 1008 10 16.0934 N/A
5:35 am 05:35 Clear 70 21 67 19.3 90 90 NW 6 9 29.77 1008 10 16.0934 N/A
5:55 am 05:55 Clear 70 21 66 19.1 89 89 WNW 5 7 29.77 1008 10 16.0934 N/A
6:15 am 06:15 Clear 69 20.5 66 19 91 91 Calm 29.77 1008 10 16.0934 N/A
6:35 am 06:35 Sunny 68 20.2 66 19 93 93 W 5 7 29.77 1008 10 16.0934 N/A
6:55 am 06:55 Sunny 69 20.5 66 19 91 91 WNW 6 9 29.8 1009 10 16.0934 N/A
7:15 am 07:15 Sunny 70 21 66 19.1 89 89 WNW 8 13 29.8 1009 10 16.0934 N/A
7:35 am 07:35 Sunny 71 21.6 66 19.1 86 86 WNW 7 11 29.8 1009 10 16.0934 N/A
7:55 am 07:55 Sunny 73 22.5 66 19.1 81 81 NW 6 9 29.77 1008 10 16.0934 N/A
8:15 am 08:15 Sunny 73 22.5 66 19 81 81 NW 7 11 29.77 1008 10 16.0934 N/A
8:35 am 08:35 Sunny 74 23.1 67 19.2 79 79 NW 9 15 29.77 1008 10 16.0934 N/A
8:55 am 08:55 Sunny 75 24 67 19.3 75 75 NW 9 15 29.77 1008 10 16.0934 N/A
9:15 am 09:15 Sunny 76 24.6 68 19.9 75 75 NW 9 15 29.77 1008 10 16.0934 N/A
9:35 am 09:35 Sunny 79 25.9 69 20.8 74 74 NW 7 11 29.74 1007 10 16.0934 N/A
9:55 am 09:55 Sunny 82 27.7 70 21.2 68 68 NNW 5 7 29.74 1007 10 16.0934 N/A
10:15 am 10:15 Sunny 85 29.3 65 18.4 52 52 N 7 11 29.74 1007 10 16.0934 N/A
10:35 am 10:35 Sunny 86 29.9 63 17.3 47 47 N 13 20 29.71 1006 10 16.0934 N/A
10:55 am 10:55 Sunny 86 30.2 63 17 45 45 N 13 20 29.71 1006 10 16.0934 N/A
11:15 am 11:15 Sunny 87 30.6 63 17.1 44 44 NNE 12 19 29.74 1007 10 16.0934 N/A
11:35 am 11:35 Sunny 88 30.9 65 18.3 47 47 N 12 19 29.74 1007 10 16.0934 N/A
11:55 am 11:55 Sunny 87 30.8 65 18.2 47 47 N 8 13 29.74 1007 10 16.0934 N/A
12:15 pm 12:15 Sunny 89 31.8 64 17.8 43 43 NNE 7 11 29.74 1007 10 16.0934 N/A
12:35 pm 12:35 Sunny 90 32.1 61 16.2 38 38 NE 9 15 29.74 1007 10 16.0934 N/A
12:55 pm 12:55 Sunny 90 32 61 16.3 39 39 NE 9 15 29.74 1007 7 11.26538 N/A
1:15 pm 13:15 Sunny 91 32.8 61 16 36 36 NE 5 7 29.74 1007 10 16.0934 N/A
1:35 pm 13:35 Sunny 92 33.5 58 14.5 32 32 E 7 11 29.71 1006 10 16.0934 N/A
1:55 pm 13:55 Sunny 93 33.7 59 15.2 33 33 E 8 13 29.71 1006 10 16.0934 N/A
2:15 pm 14:15 Sunny 93 34.1 58 14.2 30 30 E 7 11 29.68 1005 10 16.0934 N/A
2:35 pm 14:35 Sunny 94 34.3 59 14.9 31 31 E 7 11 29.68 1005 10 16.0934 N/A
2:55 pm 14:55 Sunny 95 34.8 60 15.7 32 32 E 6 9 29.68 1005 10 16.0934 N/A
3:15 pm 15:15 Sunny 95 35.1 60 15.3 31 31 ESE 8 13 29.68 1005 10 16.0934 N/A
3:35 pm 15:35 Sunny 95 34.9 59 15.1 30 30 E 6 9 29.68 1005 10 16.0934 N/A
3:55 pm 15:55 Sunny 93 34.1 61 16.2 34 34 S 12 19 29.68 1005 10 16.0934 N/A
4:15 pm 16:15 Sunny 91 33 67 19.3 44 44 S 10 17 29.71 1006 10 16.0934 N/A
4:35 pm 16:35 Sunny 92 33.3 66 18.9 43 43 SSE 9 15 29.71 1006 10 16.0934 N/A
4:55 pm 16:55 Sunny 90 32.3 66 18.7 44 44 S 9 15 29.71 1006 10 16.0934 N/A
5:15 pm 17:15 Sunny 91 32.5 66 18.9 44 44 S 7 11 29.71 1006 10 16.0934 N/A
5:35 pm 17:35 Sunny 91 32.5 67 19.2 45 45 S 7 11 29.71 1006 10 16.0934 N/A
6:35 pm 18:35 Sunny 90 32.1 68 19.8 48 48 S 7 11 29.68 1005 10 16.0934 N/A
6:55 pm 18:55 Sunny 89 31.8 68 20.2 50 50 S 7 11 29.68 1005 10 16.0934 N/A
7:15 pm 19:15 Sunny 89 31.4 69 20.3 52 52 S 7 11 29.68 1005 10 16.0934 N/A
7:35 pm 19:35 Sunny 87 30.8 69 20.8 55 55 S 5 7 29.68 1005 10 16.0934 N/A
7:55 pm 19:55 Sunny 85 29.6 70 21.3 61 61 SSE 5 7 29.68 1005 10 16.0934 N/A
8:15 pm 20:15 Sunny 83 28.4 68 20 60 60 SSE 6 9 29.71 1006 10 16.0934 N/A
8:35 pm 20:35 Sunny 82 27.9 70 21 66 66 SSW 5 7 29.71 1006 10 16.0934 N/A
8:55 pm 20:55 Sunny 80 26.6 70 21.2 72 72 S 5 7 29.71 1006 10 16.0934 N/A
9:15 pm 21:15 Clear 79 26 70 21.2 75 75 Calm 29.74 1007 10 16.0934 N/A
9:35 pm 21:35 Clear 78 25.5 68 20.1 72 72 SSE 6 9 29.74 1007 10 16.0934 N/A
9:55 pm 21:55 Clear 77 25.2 69 20.5 75 75 SSE 6 9 29.77 1008 10 16.0934 N/A
10:15 pm 22:15 Clear 76 24.5 69 20.6 79 79 SSE 5 7 29.77 1008 10 16.0934 N/A
10:35 pm 22:35 Clear 75 23.9 69 20.5 81 81 Calm 29.77 1008 10 16.0934 N/A
10:55 pm 22:55 Clear 75 24.1 69 20.5 80 80 Calm 29.77 1008 10 16.0934 N/A
11:15 pm 23:15 Clear 74 23.2 69 20.5 85 85 Calm 29.77 1008 10 16.0934 N/A
11:35 pm 23:35 Clear 73 22.6 68 20.2 86 86 Calm 29.77 1008 10 16.0934 N/A
11:55 pm 23:55 Clear 73 22.5 69 20.5 89 89 Calm 29.77 1008 10 16.0934 N/A

Powered by AerisWeather